Location: Northam
(31.6525°S, 116.6655°E)
Time: 18:41:59
(UTC+08:00)

AAUSAT CUBESAT 2 - Pass Details

Date: 27 July 2021
Orbit: 572 x 587 km, 97.5° (Epoch: 18 September)

Event Time Altitude Azimuth Distance (km) Brightness Sun altitude
Rises 18:06:19 0° 181° (S) 2,849 ? -7.1°
Reaches altitude 10° 18:08:41 10° 192° (SSW) 1,940 ? -7.6°
Maximum altitude 18:12:23 30° 253° (WSW) 1,066 ? -8.4°
Drops below altitude 10° 18:16:02 10° 314° (NW) 1,916 ? -9.1°
Sets 18:18:22 0° 325° (NW) 2,807 ? -9.6°
